[[{"header":{"parameterUnit":"m.s-1","parameterCategory":1,"la1":30.2991,"la2":30.254,"lo1":-89.0895,"lo2":-89.0444,"dy":0.0017,"dx":0.0017,"nx":28,"ny":28,"refTime":"2025-04-04T09:00:00:Z","depth":0,"parameterNumber":2,"parameterNumberName":"U-component_of_WINDS"},"data":[0,0,0,0,0,0,0,0,0,0,0,0,0,0,0,0,0,0,0,0,0,0,0,0,0,0,0,0,0,0,0,0,0,0,0,0,0,0,0,0,0,0,0,0,0,0,0,0,0,0,0,0,0,0,0,0,0,0,-6.7433,-6.7435,0,-6.754,-6.7541,-6.7542,-6.7493,-6.749,-6.7487,-6.7485,-6.759,-6.7595,-6.76,0,0,0,0,0,0,0,0,0,0,0,0,0,-6.7185,-6.719,-6.7433,-6.7435,-6.7436,-6.754,-6.7541,-6.7542,-6.7493,-6.749,-6.7486,-6.7483,-6.7588,-6.7595,-6.7601,0,0,0,0,0,0,0,0,0,0,0,0,0,-6.7292,-6.7191,-6.7433,-6.7424,-6.7424,-6.7539,-6.7541,-6.7543,-6.7494,-6.749,-6.7486,-6.7482,-6.7586,-6.7594,-6.7602,-6.7731,0,0,-6.7626,-6.7629,0,0,0,0,0,0,0,0,-6.7286,-6.7301,-6.7424,-6.7425,-6.7425,-6.7499,-6.7492,-6.7606,-6.7495,-6.7467,-6.7485,-6.748,-6.7563,-6.7572,-6.7601,-6.7736,-6.774,-6.7627,-6.7632,-6.7635,-6.7637,0,0,0,0,0,0,0,-6.7279,-6.7296,-6.7475,-6.7426,-6.7427,-6.7414,-6.7424,-6.7513,-6.7536,-6.7469,-6.7466,-6.7479,-6.7562,-6.7593,-6.7603,-6.7742,-6.7626,-6.7634,-6.7638,-6.7642,-6.7988,-6.7992,0,0,0,0,0,0,-6.7272,-6.729,-6.7472,-6.7478,-6.7344,-6.7421,-6.7433,-6.7479,-6.7535,-6.754,-6.7483,-6.7477,-6.7582,-6.7594,-6.7607,-6.776,-6.7635,-6.7642,-6.7647,-6.7983,-6.7989,-6.7993,0,0,0,0,0,0,-6.7267,-6.7289,-6.7468,-6.7384,-6.7406,-6.743,-6.7482,-6.7483,-6.7514,-6.7545,-6.7549,-6.751,-6.7579,-6.7595,-6.77,-6.7763,-6.7646,-6.7653,-6.7978,-6.7985,-6.7991,-6.8069,0,0,0,0,0,0,-6.726,-6.7287,-6.7337,-6.7385,-6.741,-6.7561,-6.7486,-6.7488,-6.7529,-6.7522,-6.7572,-6.7576,-6.7577,-6.7689,-6.7708,-6.7772,-6.7659,-6.7972,-6.7981,-6.7989,-6.8061,-6.8077,-6.8091,0,0,0,0,0,-6.7251,-6.7354,-6.7339,-6.7362,-6.7473,-6.7564,-6.7578,-6.7578,-6.7534,-6.7584,-6.7604,-6.7575,-6.7754,-6.77,-6.7722,-6.7788,-6.7968,-6.7979,-6.7988,-6.8054,-6.8074,-6.8091,0,0,0,0,0,0,-6.731,-6.736,-6.7344,-6.7466,-6.7512,-6.7556,-6.7618,-6.76,-6.7657,-6.7648,-6.7645,-6.7657,-6.7765,-6.7788,-6.7727,-6.7916,-6.7854,-6.7869,-6.7897,-6.7916,-6.7931,-6.7922,-6.7666,0,0,0,0,0,-6.7338,-6.7409,-6.7448,-6.7551,-6.7575,-6.7593,-6.7633,-6.7629,-6.7675,-6.7694,-6.7721,-6.7767,-6.7833,-6.7876,-6.7939,-6.8065,-6.8074,-6.8122,-6.8137,-6.815,-6.8161,-6.8228,-6.8249,-6.8026,-6.8026,-6.8026,0,0,-6.7394,-6.743,-6.7475,-6.7564,-6.7599,-6.7671,-6.7609,-6.7689,-6.7742,-6.7706,-6.7806,-6.7829,-6.7879,-6.7995,-6.8047,-6.8016,-6.8226,-6.8163,-6.8172,-6.8177,-6.824,-6.8261,-6.828,-6.8033,-6.8032,-6.8031,0,0,-6.7533,-6.7569,-6.7658,-6.7695,-6.7749,-6.7761,-6.7783,-6.7831,-6.7844,-6.7946,-6.792,-6.7984,-6.8099,-6.8135,-6.8168,-6.8325,-6.83,-6.8346,-6.8424,-6.849,-6.8507,-6.8523,-6.8576,-6.8595,-6.8358,-6.8358,-6.8358,0,-6.7596,-6.7705,-6.7706,-6.7788,-6.7827,-6.7801,-6.789,-6.7926,-6.7997,-6.8025,-6.7991,-6.8134,-6.8167,-6.829,-6.8328,-6.8357,-6.838,-6.8338,-6.8505,-6.852,-6.8535,-6.8585,-6.8606,-6.8363,-6.8363,-6.8362,-6.8362,0,-6.7778,-6.7855,-6.792,-6.7991,-6.8039,-6.8124,-6.8137,-6.8185,-6.8179,-6.8194,-6.8297,-6.8336,-6.8405,-6.8435,-6.8429,-6.8558,-6.8537,-6.8505,-6.8442,-6.8561,-6.8608,-6.8628,-6.837,-6.8369,-6.8367,-6.8366,0,0,-6.7953,-6.8027,-6.805,-6.8082,-6.8141,-6.8199,-6.8284,-6.8353,-6.8393,-6.8445,-6.8514,-6.8613,-6.8584,-6.8622,-6.862,-6.8678,-6.8797,-6.8638,-6.8639,-6.8663,-6.8938,-6.896,-6.8982,-6.8783,-6.8786,-6.8789,-6.8933,0,-6.8095,-6.8243,-6.8247,-6.8382,-6.8452,-6.8429,-6.8502,-6.8546,-6.8564,-6.8624,-6.8643,-6.8713,-6.867,-6.8693,-6.8749,-6.877,-6.8851,-6.876,-6.8844,-6.8847,-6.8828,-6.9007,-6.903,-6.9164,-6.8952,-6.8955,-6.8958,0,-6.8278,-6.8336,-6.8478,-6.8527,-6.8557,-6.8623,-6.8687,-6.8746,-6.8796,-6.8804,-6.8849,-6.8839,-6.8924,-6.8862,-6.8978,-6.8917,-6.8952,-6.8968,-6.8973,-6.8977,-6.8906,-6.9013,-6.9207,-6.9225,-6.8987,-6.8985,-6.8983,0,-6.8387,-6.8502,-6.8601,-6.863,-6.8691,-6.8737,-6.8764,-6.881,-6.8852,-6.8909,-6.8935,-6.9001,-6.9036,-6.9087,-6.9095,-6.9049,-6.9211,-6.915,-6.9218,-6.9218,-6.9249,-6.9246,-6.9447,-6.9279,-6.9279,-6.9279,-6.9278,0,-6.8542,-6.8629,-6.8651,-6.8712,-6.8808,-6.8814,-6.8909,-6.8933,-6.8975,-6.9039,-6.9025,-6.9085,-6.9094,-6.9156,-6.9163,-6.9257,-6.9274,-6.9282,-6.9282,-6.9281,-6.9279,-6.9301,-6.929,-6.9284,-6.9283,-6.9282,-6.9281,0,-6.8678,-6.8697,-6.8804,-6.8854,-6.8869,-6.8937,-6.898,-6.9037,-6.9055,-6.9136,-6.9156,-6.9182,-6.9255,-6.9269,-6.9356,-6.936,-6.9471,-6.9464,-6.9454,-6.9452,-6.9518,-6.9511,-6.9737,-6.9766,-6.9582,-6.9584,-6.9585,0,-6.8774,-6.884,-6.8898,-6.8941,-6.8971,-6.904,-6.9083,-6.9092,-6.9137,-6.9199,-6.9249,-6.9321,-6.9378,-6.9496,-6.9522,-6.9588,-6.958,-6.9655,-6.9589,-6.9586,-6.9577,-6.9571,-6.9576,-6.9665,-6.9667,-6.9669,-6.967,0,-6.894,-6.8946,-6.9009,-6.9076,-6.9128,-6.9181,-6.9231,-6.9267,-6.9283,-6.9334,-6.9409,-6.9454,-6.9543,-6.9613,-6.968,-6.9707,-6.9691,-6.9692,-6.971,-6.9707,-6.9698,-6.9701,-6.9484,-6.9685,-6.9684,-6.9683,-6.9682,-6.9681,-6.9056,-6.9114,-6.9164,-6.9234,-6.9274,-6.9321,-6.9378,-6.9403,-6.9466,-6.9539,-6.9542,-6.9623,-6.9672,-6.9759,-6.9791,-6.9854,-6.983,-6.9858,-6.9864,-6.987,-6.9874,-6.9692,-6.9867,-6.9866,-6.9866,-6.9865,-6.9865,0,-6.9218,-6.925,-6.9316,-6.9387,-6.9442,-6.9426,-6.9481,-6.9528,-6.96,-6.9647,-6.9705,-6.9791,-6.986,-6.9893,-6.9961,-7.0006,-7.0,-7.0023,-7.0017,-7.0023,-6.9893,-6.9869,-7.0026,-7.0026,-7.0026,-7.0026,-7.0026,-7.0026,-6.9309,-6.9405,-6.9418,-6.9534,-6.9565,-6.9645,-6.9678,-6.9721,-6.9759,-6.9856,-6.9914,-6.9936,-6.9977,-7.0049,-7.0111,-7.0119,-7.0143,-7.0169,-7.0173,-7.0049,-7.0033,-7.0017,-6.9994,-7.0175,-7.0175,-7.0297,-7.0298,-7.0299]},{"header":{"parameterUnit":"m.s-1","parameterCategory":1,"la1":30.2991,"la2":30.254,"lo1":-89.0895,"lo2":-89.0444,"dy":0.0017,"dx":0.0017,"nx":28,"ny":28,"refTime":"2025-04-04T09:00:00:Z","depth":0,"parameterNumber":3,"parameterNumberName":"V-component_of_WINDS"},"data":[0,0,0,0,0,0,0,0,0,0,0,0,0,0,0,0,0,0,0,0,0,0,0,0,0,0,0,0,0,0,0,0,0,0,0,0,0,0,0,0,0,0,0,0,0,0,0,0,0,0,0,0,0,0,0,0,0,0,3.2799,3.2801,0,3.2918,3.2919,3.292,3.2941,3.294,3.2939,3.2938,3.3057,3.3061,3.3065,0,0,0,0,0,0,0,0,0,0,0,0,0,3.2592,3.2595,3.2799,3.2801,3.2802,3.2917,3.2919,3.2921,3.2941,3.294,3.2939,3.2938,3.3055,3.306,3.3065,0,0,0,0,0,0,0,0,0,0,0,0,0,3.2693,3.2597,3.2799,3.2827,3.283,3.2917,3.2919,3.2921,3.2942,3.294,3.2939,3.2937,3.3054,3.306,3.3066,3.3133,0,0,3.3084,3.3087,0,0,0,0,0,0,0,0,3.2687,3.2701,3.2821,3.2825,3.2829,3.2913,3.2889,3.2992,3.2942,3.2899,3.2938,3.2937,3.301,3.302,3.3045,3.3138,3.3143,3.3085,3.3089,3.3091,3.3093,0,0,0,0,0,0,0,3.268,3.2696,3.2846,3.2823,3.2828,3.2833,3.2846,3.2909,3.2961,3.2903,3.2905,3.2918,3.3012,3.3039,3.3048,3.3145,3.3085,3.309,3.3094,3.3096,3.3303,3.3305,0,0,0,0,0,0,3.2668,3.269,3.2842,3.285,3.2753,3.2838,3.2852,3.2888,3.2961,3.297,3.292,3.2919,3.3029,3.3041,3.3052,3.3138,3.3091,3.3097,3.31,3.3301,3.3304,3.3306,0,0,0,0,0,0,3.2664,3.2682,3.2838,3.277,3.2791,3.2843,3.2883,3.2891,3.2918,3.2973,3.2983,3.2938,3.3029,3.3043,3.3114,3.3142,3.31,3.3105,3.3299,3.3302,3.3305,3.3308,0,0,0,0,0,0,3.2658,3.268,3.2706,3.2771,3.2794,3.2897,3.2884,3.2894,3.2929,3.2929,3.2993,3.3002,3.3029,3.3104,3.312,3.315,3.311,3.3297,3.33,3.3304,3.3306,3.3311,3.3315,0,0,0,0,0,3.265,3.2701,3.2707,3.2725,3.2827,3.2899,3.2912,3.2942,3.2931,3.2958,3.2994,3.3,3.3136,3.3111,3.3129,3.3161,3.3295,3.3299,3.3303,3.3304,3.331,3.3315,0,0,0,0,0,0,3.2636,3.271,3.2717,3.279,3.2838,3.2902,3.2936,3.2947,3.2998,3.2996,3.3031,3.3046,3.3114,3.3145,3.3115,3.3232,3.3215,3.3223,3.3209,3.3216,3.322,3.3212,3.3115,0,0,0,0,0,3.2642,3.2694,3.2755,3.2814,3.2837,3.2883,3.2915,3.2935,3.2985,3.3005,3.3046,3.3095,3.3149,3.3184,3.3236,3.331,3.3326,3.3341,3.3346,3.3349,3.3356,3.34,3.3409,3.3319,3.3319,3.3319,0,0,3.2653,3.27,3.273,3.2812,3.2851,3.2905,3.29,3.2955,3.2996,3.3013,3.3083,3.3115,3.3172,3.3245,3.3279,3.3272,3.3384,3.3355,3.3357,3.3362,3.3405,3.3414,3.3421,3.3322,3.3321,3.3321,0,0,3.2702,3.2742,3.2797,3.2837,3.2898,3.2928,3.2941,3.3005,3.3027,3.3098,3.3113,3.3161,3.3253,3.3294,3.3327,3.3395,3.3403,3.3411,3.3435,3.3478,3.3485,3.3491,3.3518,3.3527,3.3417,3.3417,3.3417,0,3.2709,3.279,3.2823,3.288,3.2916,3.2937,3.2993,3.303,3.3104,3.3129,3.3121,3.3239,3.3278,3.3363,3.338,3.3405,3.3422,3.3404,3.3481,3.3488,3.3495,3.352,3.353,3.3418,3.3418,3.3418,3.3418,0,3.2797,3.2853,3.289,3.2964,3.3004,3.306,3.3102,3.3139,3.3156,3.3188,3.3261,3.3309,3.3373,3.3395,3.341,3.3482,3.3477,3.3474,3.3458,3.3503,3.3528,3.3538,3.3419,3.3419,3.3418,3.3418,0,0,3.2838,3.2932,3.2945,3.298,3.305,3.3094,3.3152,3.3217,3.3249,3.33,3.335,3.3429,3.3429,3.3466,3.3487,3.3524,3.3578,3.3518,3.352,3.3529,3.3663,3.3665,3.3676,3.3584,3.3586,3.3588,3.3659,0,3.2897,3.3002,3.3035,3.3122,3.3177,3.3198,3.3249,3.3297,3.3329,3.338,3.3414,3.3471,3.3465,3.3488,3.3526,3.3564,3.3606,3.3559,3.3632,3.3635,3.3619,3.3689,3.3691,3.3755,3.3669,3.367,3.3671,0,3.2979,3.3034,3.3128,3.3194,3.3218,3.3263,3.3327,3.3374,3.3431,3.3451,3.3495,3.3513,3.3576,3.3556,3.3644,3.3611,3.3643,3.3667,3.367,3.3679,3.3656,3.3701,3.3776,3.3787,3.3687,3.3685,3.3684,0,3.3003,3.31,3.317,3.3199,3.3277,3.3309,3.3343,3.3398,3.3435,3.3491,3.3516,3.3577,3.3611,3.3658,3.3693,3.3675,3.3778,3.3761,3.3798,3.3797,3.3819,3.3817,3.3902,3.3837,3.3837,3.3837,3.3837,0,3.3066,3.3123,3.3182,3.3225,3.329,3.3327,3.3391,3.3426,3.3475,3.3526,3.3547,3.3594,3.3638,3.3691,3.3718,3.3788,3.3802,3.3821,3.3828,3.382,3.3818,3.3842,3.3839,3.384,3.3839,3.3839,3.3838,0,3.3103,3.3145,3.3223,3.3291,3.331,3.3355,3.3414,3.3457,3.3491,3.3555,3.3572,3.3624,3.3688,3.3728,3.3808,3.3827,3.3904,3.3909,3.3886,3.3889,3.3925,3.3921,3.4029,3.4046,3.3968,3.3969,3.397,0,3.3141,3.3186,3.326,3.3297,3.3332,3.3389,3.3428,3.3467,3.3508,3.3577,3.3612,3.3678,3.3732,3.3834,3.3879,3.3941,3.3948,3.3982,3.3958,3.3949,3.3951,3.3949,3.3954,3.3986,3.3987,3.3987,3.3988,0,3.3205,3.3224,3.328,3.3345,3.3392,3.3445,3.3497,3.3525,3.3573,3.3618,3.3684,3.3727,3.3811,3.3876,3.3943,3.3978,3.3992,3.3995,3.4007,3.4,3.3986,3.3996,3.3898,3.3992,3.3992,3.3992,3.3991,3.3991,3.3245,3.3287,3.3347,3.341,3.3454,3.3503,3.3548,3.3588,3.3645,3.3717,3.3736,3.3807,3.3864,3.3956,3.3993,3.4049,3.4044,3.4061,3.4066,3.407,3.4072,3.3976,3.4061,3.4061,3.4061,3.4061,3.406,0,3.3312,3.3352,3.341,3.3483,3.3534,3.3543,3.3602,3.3644,3.3705,3.3759,3.3813,3.3891,3.3955,3.4006,3.4073,3.4108,3.4116,3.4124,3.4123,3.4131,3.4071,3.4055,3.4117,3.4117,3.4117,3.4117,3.4117,3.4117,3.3352,3.3425,3.3452,3.3547,3.3587,3.3657,3.369,3.3736,3.378,3.3866,3.392,3.3954,3.4007,3.4078,3.4138,3.4152,3.4176,3.4183,3.4198,3.4141,3.4135,3.4129,3.4114,3.4188,3.4188,3.4254,3.4255,3.4255]}]]